Location: Sternwarte_Laufen
(47.9344°N, 12.9346°E)
Time: 06:18:55
(UTC+02:00)

ISS - Pass Details

Date: 21 July 2018
Orbit: 402 x 408 km, 51.6° (Epoch: 23 July)

Event Time Altitude Azimuth Distance (km) Brightness Sun altitude
Rises 04:35:08 0° 287° (WNW) 2,333 -0.3 -8.2°
Reaches altitude 10° 04:37:33 10° 271° (W) 1,470 -1.4 -7.9°
Maximum altitude 04:40:05 21° 220° (SW) 987 -2.5 -7.6°
Drops below altitude 10° 04:42:37 10° 170° (S) 1,464 -1.3 -7.3°
Sets 04:45:01 0° 153° (SSE) 2,320 -0.1 -7.0°
